[[{"header":{"parameterUnit":"m.s-1","parameterCategory":2,"la1":30.2991,"la2":30.254,"lo1":-89.0895,"lo2":-89.0444,"dy":0.0017,"dx":0.0017,"nx":28,"ny":28,"refTime":"2023-10-15T21:00:00:Z","depth":"0","parameterNumber":2,"parameterNumberName":"U-component_of_CURRENTS"},"data":[0,0,0,0,0,0,0,0,0,0,0,0,0,0,0,0,0,0,0,0,0,0,0,0,0,0,0,0,0,0,0,0,0,0,0,0,0,0,0,0,0,0,0,0,0,0,0,0,0,0,0,0,0,0,0,0,0,0,0.2496,0.2497,0,0.2531,0.2531,0.2531,0.2524,0.2524,0.2523,0.2523,0.247,0.2469,0.2468,0,0,0,0,0,0,0,0,0,0,0,0,0,0.2454,0.2454,0.2496,0.2497,0.2498,0.2531,0.2531,0.2531,0.2524,0.2524,0.2523,0.2523,0.2471,0.2469,0.2468,0,0,0,0,0,0,0,0,0,0,0,0,0,0.2474,0.2454,0.2496,0.2502,0.2503,0.2531,0.2531,0.2531,0.2524,0.2524,0.2523,0.2523,0.2471,0.2469,0.2467,0.2463,0,0,0.2462,0.2461,0,0,0,0,0,0,0,0,0.2473,0.2475,0.25,0.2502,0.2503,0.2527,0.2497,0.2506,0.2524,0.2511,0.2523,0.2523,0.2484,0.2482,0.2483,0.246,0.2458,0.2462,0.2461,0.246,0.2459,0,0,0,0,0,0,0,0.2472,0.2474,0.2505,0.2501,0.2503,0.2514,0.2515,0.2499,0.2494,0.2512,0.2513,0.2524,0.2484,0.2485,0.2482,0.2457,0.2462,0.246,0.2459,0.2458,0.2376,0.2375,0,0,0,0,0,0,0.2476,0.2472,0.2504,0.2507,0.2492,0.2515,0.2517,0.2516,0.2496,0.2495,0.2525,0.2524,0.2488,0.2484,0.248,0.2456,0.246,0.2458,0.2457,0.2377,0.2376,0.2375,0,0,0,0,0,0,0.2474,0.2478,0.2503,0.2495,0.25,0.2516,0.2515,0.2517,0.2517,0.2507,0.2503,0.2524,0.2488,0.2482,0.2462,0.2454,0.2457,0.2456,0.2378,0.2377,0.2375,0.2419,0,0,0,0,0,0,0.2473,0.2477,0.2468,0.2495,0.25,0.2504,0.2516,0.2518,0.2527,0.2526,0.2505,0.25,0.2487,0.2464,0.246,0.2452,0.2454,0.238,0.2378,0.2376,0.2419,0.2419,0.2419,0,0,0,0,0,0.2471,0.2456,0.2466,0.247,0.249,0.2503,0.2506,0.2514,0.2527,0.2515,0.2511,0.2501,0.2447,0.2463,0.2457,0.2449,0.2381,0.2378,0.2376,0.2419,0.2419,0.2419,0,0,0,0,0,0,0.2412,0.2455,0.2467,0.246,0.2477,0.2503,0.2498,0.2515,0.2506,0.2501,0.2498,0.2492,0.2469,0.2447,0.2465,0.2414,0.2407,0.2404,0.2441,0.2441,0.2441,0.2512,0.2453,0,0,0,0,0,0.2403,0.2413,0.2446,0.2438,0.2449,0.2477,0.2483,0.249,0.2496,0.2493,0.2488,0.247,0.2455,0.2441,0.2419,0.2397,0.247,0.2381,0.2381,0.2382,0.2432,0.2549,0.2568,0.2367,0.2367,0.2367,0,0,0.2382,0.2404,0.2409,0.2429,0.2445,0.2464,0.2477,0.2481,0.2494,0.2486,0.2488,0.2473,0.2449,0.2428,0.2413,0.2409,0.2469,0.2379,0.238,0.2431,0.2549,0.257,0.2589,0.2365,0.2365,0.2365,0,0,0.2363,0.2361,0.2378,0.2394,0.2421,0.2437,0.2442,0.2467,0.2469,0.247,0.2471,0.2472,0.243,0.2437,0.2429,0.2417,0.247,0.2375,0.2434,0.2546,0.2566,0.2585,0.2691,0.2719,0.2371,0.2371,0.2371,0,0.234,0.2365,0.2378,0.24,0.2421,0.2431,0.2456,0.2455,0.2469,0.249,0.2464,0.248,0.2449,0.2478,0.2466,0.2425,0.25,0.244,0.2556,0.2575,0.2594,0.2699,0.2729,0.2373,0.2373,0.2373,0.2372,0,0.2352,0.2367,0.2372,0.2415,0.2426,0.2439,0.2458,0.2465,0.2473,0.2494,0.2519,0.2503,0.253,0.2492,0.2476,0.2568,0.2583,0.2553,0.2575,0.2619,0.2723,0.2755,0.2376,0.2375,0.2374,0.2374,0,0,0.2349,0.238,0.2388,0.2416,0.244,0.2458,0.2472,0.2513,0.2556,0.2549,0.2627,0.2595,0.262,0.2616,0.2597,0.2678,0.2847,0.2675,0.268,0.2817,0.3117,0.2936,0.2953,0.285,0.2856,0.286,0.3135,0,0.2373,0.2416,0.2423,0.2466,0.25,0.251,0.2531,0.2559,0.2581,0.2645,0.2659,0.2699,0.2652,0.2674,0.2755,0.2826,0.2933,0.2777,0.3024,0.3032,0.2897,0.2983,0.2753,0.2962,0.3166,0.3171,0.3175,0,0.2421,0.2443,0.2485,0.2528,0.2543,0.2556,0.2625,0.2643,0.2713,0.2735,0.2801,0.2821,0.2929,0.2877,0.3093,0.3001,0.3085,0.3139,0.315,0.3002,0.2909,0.295,0.3012,0.2885,0.3224,0.322,0.3216,0,0.2471,0.2504,0.2539,0.2552,0.2586,0.2606,0.2624,0.2679,0.2714,0.2814,0.2871,0.2986,0.3056,0.3195,0.327,0.3221,0.3517,0.3455,0.3387,0.3375,0.3239,0.3203,0.3242,0.3659,0.3659,0.3658,0.3657,0,0.2528,0.2571,0.256,0.2586,0.2636,0.2639,0.2698,0.2739,0.2804,0.2872,0.2929,0.3014,0.3147,0.329,0.337,0.347,0.3608,0.345,0.3448,0.3235,0.3198,0.3124,0.3087,0.3668,0.3666,0.3664,0.3662,0,0.2619,0.2602,0.2657,0.2668,0.2666,0.2711,0.273,0.2783,0.283,0.2934,0.2974,0.3099,0.3246,0.336,0.3582,0.357,0.3569,0.3695,0.3419,0.3376,0.3105,0.3078,0.3108,0.303,0.368,0.3677,0.3675,0,0.2684,0.2712,0.2722,0.2742,0.2748,0.2776,0.2801,0.2812,0.286,0.2972,0.3043,0.3182,0.325,0.3469,0.3477,0.3591,0.3506,0.3442,0.3275,0.3096,0.307,0.2981,0.2908,0.3138,0.3131,0.3126,0.3122,0,0.2818,0.2808,0.2836,0.2837,0.2853,0.287,0.2891,0.2905,0.2931,0.299,0.3058,0.3107,0.3228,0.3177,0.3264,0.3305,0.3199,0.333,0.3249,0.2741,0.2556,0.2472,0.2958,0.3075,0.3079,0.3083,0.3085,0.3087,0.2927,0.2946,0.2927,0.293,0.2938,0.2912,0.2871,0.2886,0.2885,0.2871,0.2991,0.2959,0.2917,0.2947,0.2983,0.2786,0.2878,0.266,0.2684,0.2644,0.2417,0.277,0.2785,0.2788,0.279,0.2793,0.2795,0,0.3008,0.298,0.3009,0.2947,0.2914,0.2914,0.2886,0.2793,0.2712,0.2755,0.2735,0.2587,0.2479,0.2445,0.2272,0.2167,0.2122,0.2098,0.1953,0.1948,0.236,0.2172,0.1922,0.1922,0.1922,0.1922,0.1923,0.1923,0.3042,0.3023,0.2982,0.2889,0.2847,0.2712,0.2653,0.2544,0.2499,0.2323,0.2199,0.2175,0.2107,0.193,0.1745,0.1709,0.1618,0.1483,0.1593,0.1869,0.1923,0.1975,0.1787,0.1461,0.1461,0.1042,0.1039,0.1037]},{"header":{"parameterUnit":"m.s-1","parameterCategory":2,"la1":30.2991,"la2":30.254,"lo1":-89.0895,"lo2":-89.0444,"dy":0.0017,"dx":0.0017,"nx":28,"ny":28,"refTime":"2023-10-15T21:00:00:Z","depth":"0","parameterNumber":3,"parameterNumberName":"V-component_of_CURRENTS"},"data":[0,0,0,0,0,0,0,0,0,0,0,0,0,0,0,0,0,0,0,0,0,0,0,0,0,0,0,0,0,0,0,0,0,0,0,0,0,0,0,0,0,0,0,0,0,0,0,0,0,0,0,0,0,0,0,0,0,0,-0.0636,-0.0638,0,-0.0758,-0.0759,-0.0761,-0.0832,-0.0832,-0.0832,-0.0833,-0.0818,-0.0817,-0.0816,0,0,0,0,0,0,0,0,0,0,0,0,0,-0.0517,-0.0519,-0.0636,-0.0638,-0.064,-0.0758,-0.0759,-0.0761,-0.0831,-0.0832,-0.0832,-0.0833,-0.0818,-0.0817,-0.0816,0,0,0,0,0,0,0,0,0,0,0,0,0,-0.0595,-0.0519,-0.0636,-0.069,-0.0696,-0.0758,-0.076,-0.0761,-0.0831,-0.0832,-0.0833,-0.0833,-0.0818,-0.0817,-0.0816,-0.0796,0,0,-0.0812,-0.0812,0,0,0,0,0,0,0,0,-0.0591,-0.0599,-0.0681,-0.0687,-0.0694,-0.0782,-0.0712,-0.0767,-0.0831,-0.0778,-0.0833,-0.0833,-0.0793,-0.0794,-0.0816,-0.0795,-0.0795,-0.0812,-0.0812,-0.0811,-0.0811,0,0,0,0,0,0,0,-0.0585,-0.0595,-0.0683,-0.0682,-0.069,-0.0727,-0.0738,-0.0724,-0.0777,-0.0783,-0.0789,-0.0805,-0.0796,-0.0817,-0.0815,-0.0795,-0.0812,-0.0811,-0.0811,-0.081,-0.072,-0.0718,0,0,0,0,0,0,-0.057,-0.0589,-0.0679,-0.0687,-0.0644,-0.0728,-0.074,-0.0751,-0.0781,-0.0787,-0.0804,-0.0808,-0.0819,-0.0817,-0.0815,-0.0754,-0.0811,-0.081,-0.0809,-0.0722,-0.072,-0.0718,0,0,0,0,0,0,-0.0567,-0.0576,-0.0674,-0.0642,-0.0658,-0.0729,-0.0741,-0.0754,-0.0774,-0.0798,-0.0802,-0.0811,-0.0819,-0.0817,-0.0802,-0.0755,-0.0809,-0.0808,-0.0724,-0.0721,-0.0719,-0.0656,0,0,0,0,0,0,-0.0563,-0.0574,-0.0575,-0.0641,-0.0659,-0.0694,-0.0741,-0.0756,-0.0783,-0.0789,-0.0805,-0.0806,-0.0819,-0.0804,-0.0801,-0.0755,-0.0807,-0.0726,-0.0723,-0.072,-0.0661,-0.0652,-0.0645,0,0,0,0,0,-0.0558,-0.0557,-0.0574,-0.0585,-0.0657,-0.0693,-0.0704,-0.0758,-0.0783,-0.078,-0.08,-0.0805,-0.0781,-0.0802,-0.0799,-0.0751,-0.0727,-0.0723,-0.072,-0.0664,-0.0654,-0.0645,0,0,0,0,0,0,-0.0504,-0.0567,-0.0586,-0.0603,-0.0636,-0.0705,-0.0714,-0.0749,-0.0767,-0.0769,-0.0794,-0.0795,-0.0765,-0.0765,-0.0788,-0.0715,-0.0749,-0.0745,-0.0708,-0.0698,-0.069,-0.0616,-0.0806,0,0,0,0,0,-0.0491,-0.0508,-0.0563,-0.0574,-0.0587,-0.0646,-0.0669,-0.0701,-0.0731,-0.0743,-0.0755,-0.0756,-0.0747,-0.0731,-0.0729,-0.0686,-0.0632,-0.0649,-0.0641,-0.0634,-0.0571,-0.044,-0.0413,-0.0705,-0.0705,-0.0706,0,0,-0.0476,-0.051,-0.0521,-0.0563,-0.0595,-0.0593,-0.066,-0.0684,-0.0673,-0.0731,-0.0713,-0.0735,-0.0734,-0.0699,-0.0681,-0.069,-0.0537,-0.063,-0.0624,-0.0562,-0.0433,-0.0404,-0.0378,-0.0703,-0.0703,-0.0704,0,0,-0.0437,-0.0476,-0.0467,-0.0487,-0.0526,-0.0558,-0.0557,-0.0611,-0.0624,-0.0621,-0.0654,-0.0635,-0.0639,-0.0613,-0.0603,-0.0539,-0.051,-0.0551,-0.0434,-0.0311,-0.0284,-0.026,-0.021,-0.0181,-0.0534,-0.0534,-0.0534,0,-0.0408,-0.0404,-0.0467,-0.0454,-0.0454,-0.053,-0.0498,-0.0526,-0.0565,-0.0533,-0.0599,-0.0548,-0.0581,-0.048,-0.0483,-0.0514,-0.0461,-0.0479,-0.0296,-0.027,-0.0246,-0.02,-0.0169,-0.053,-0.0531,-0.0531,-0.0531,0,-0.0357,-0.0348,-0.0342,-0.0344,-0.0352,-0.0343,-0.038,-0.0374,-0.0407,-0.0414,-0.0347,-0.0391,-0.0334,-0.0367,-0.0418,-0.0262,-0.0291,-0.0313,-0.0314,-0.0212,-0.0172,-0.0141,-0.0525,-0.0527,-0.0528,-0.0528,0,0,-0.0291,-0.0299,-0.0291,-0.0261,-0.0287,-0.0282,-0.0248,-0.021,-0.0141,-0.0185,-0.0067,-0.0104,-0.0107,-0.0093,-0.0139,-0.006,0.0081,-0.0113,-0.0108,-0.0053,0.0325,0.022,0.0242,0.0099,0.0106,0.0111,0.0265,0,-0.0215,-0.0157,-0.0181,-0.0109,-0.0078,-0.0108,-0.0058,-0.0035,-0.0024,0.0065,0.0059,0.0126,-0.0008,0.0026,0.0089,0.0096,0.0176,0.004,0.0213,0.0218,0.0123,0.0281,0.0195,0.0321,0.0295,0.03,0.0304,0,-0.0141,-0.011,-0.003,0.0034,0.0051,0.0086,0.019,0.0224,0.0317,0.0337,0.0418,0.0407,0.0505,0.0371,0.0497,0.0419,0.0398,0.0383,0.0389,0.0314,0.0175,0.0227,0.0378,0.0279,0.0352,0.0348,0.0344,0,-0.0059,0.0007,0.0081,0.0094,0.0144,0.0204,0.0244,0.0324,0.0393,0.0536,0.062,0.0718,0.0779,0.0813,0.0722,0.0651,0.0853,0.0754,0.0647,0.0635,0.0613,0.0588,0.0714,0.0897,0.0897,0.0896,0.0896,0,0.0022,0.0081,0.0129,0.0163,0.0278,0.0296,0.0436,0.0488,0.062,0.0756,0.0776,0.0905,0.0901,0.0968,0.0879,0.0864,0.0989,0.0735,0.0713,0.0618,0.0594,0.0544,0.048,0.0902,0.0901,0.09,0.0899,0,0.0062,0.0098,0.018,0.0268,0.0304,0.0379,0.0503,0.0623,0.073,0.0922,0.0982,0.1103,0.1187,0.114,0.1195,0.1062,0.0986,0.1004,0.0845,0.0802,0.0567,0.0508,0.066,0.0625,0.0951,0.095,0.0949,0,0.0073,0.0122,0.023,0.0293,0.0328,0.0441,0.0539,0.0655,0.0786,0.1031,0.1149,0.1287,0.137,0.1385,0.1218,0.1114,0.0996,0.0936,0.0786,0.0614,0.0535,0.0489,0.0445,0.0758,0.0755,0.0753,0.0752,0,0.0094,0.0134,0.0204,0.0331,0.0438,0.0561,0.0711,0.0823,0.1005,0.1166,0.1388,0.148,0.1471,0.1344,0.117,0.1056,0.084,0.0889,0.0814,0.051,0.0383,0.0313,0.0533,0.0735,0.0736,0.0738,0.0739,0.0739,0.0108,0.0154,0.0263,0.0383,0.0517,0.0687,0.0792,0.0971,0.1172,0.1412,0.1503,0.1618,0.1422,0.1171,0.1027,0.0672,0.0723,0.0529,0.0504,0.0499,0.0391,0.0529,0.0627,0.0628,0.0629,0.0629,0.063,0,0.0129,0.02,0.0314,0.0478,0.063,0.0695,0.0921,0.1029,0.125,0.1444,0.1591,0.1501,0.1242,0.097,0.0518,0.0318,0.0257,0.0227,0.0171,0.0169,0.0394,0.0303,0.0212,0.0212,0.0212,0.0212,0.0212,0.0213,0.0152,0.0253,0.0317,0.0551,0.0674,0.0856,0.0977,0.1135,0.1277,0.1427,0.1452,0.1469,0.1241,0.0579,0.0128,0.0031,-0.006,-0.0105,-0.0087,0.004,0.0066,0.0091,-0.0006,-0.016,-0.016,-0.0328,-0.033,-0.0331]}],[{"header":{"parameterUnit":"m.s-1","parameterCategory":2,"la1":30.2991,"la2":30.254,"lo1":-89.0895,"lo2":-89.0444,"dy":0.0017,"dx":0.0017,"nx":28,"ny":28,"refTime":"2023-10-15T21:00:00:Z","depth":"2","parameterNumber":2,"parameterNumberName":"U-component_of_CURRENTS"},"data":[0,0,0,0,0,0,0,0,0,0,0,0,0,0,0,0,0,0,0,0,0,0,0,0,0,0,0,0,0,0,0,0,0,0,0,0,0,0,0,0,0,0,0,0,0,0,0,0,0,0,0,0,0,0,0,0,0,0,0.1978,0.1978,0,0.1968,0.1967,0.1966,0.1957,0.1958,0.1958,0.1958,0.1928,0.1927,0.1926,0,0,0,0,0,0,0,0,0,0,0,0,0,0.1958,0.1958,0.1978,0.1978,0.1979,0.1968,0.1967,0.1966,0.1957,0.1958,0.1958,0.1959,0.1929,0.1927,0.1926,0,0,0,0,0,0,0,0,0,0,0,0,0,0.1953,0.1958,0.1978,0.1977,0.1978,0.1968,0.1967,0.1966,0.1957,0.1958,0.1958,0.1959,0.1929,0.1927,0.1925,0.19,0,0,0.192,0.1919,0,0,0,0,0,0,0,0,0.1954,0.1953,0.1977,0.1977,0.1978,0.197,0.1949,0.1945,0.1957,0.1958,0.1958,0.1959,0.1944,0.1941,0.1929,0.1898,0.1897,0.192,0.1918,0.1918,0.1917,0,0,0,0,0,0,0,0.1954,0.1954,0.1967,0.1978,0.1978,0.1968,0.1967,0.1948,0.1942,0.1958,0.1959,0.1968,0.1943,0.193,0.1928,0.1897,0.192,0.1918,0.1917,0.1916,0.1894,0.1895,0,0,0,0,0,0,0.1969,0.1954,0.1968,0.1968,0.1974,0.1968,0.1967,0.1967,0.1942,0.1942,0.1967,0.1967,0.1933,0.193,0.1927,0.1943,0.1918,0.1916,0.1915,0.1894,0.1894,0.1895,0,0,0,0,0,0,0.1968,0.197,0.1968,0.1966,0.1966,0.1969,0.1967,0.1966,0.1971,0.1951,0.1948,0.1977,0.1934,0.1929,0.1924,0.1941,0.1915,0.1913,0.1893,0.1894,0.1895,0.1946,0,0,0,0,0,0,0.1967,0.1969,0.1974,0.1967,0.1967,0.196,0.1967,0.1966,0.1978,0.1978,0.1958,0.1955,0.1934,0.1927,0.1922,0.1937,0.1912,0.1892,0.1893,0.1894,0.1943,0.1948,0.1952,0,0,0,0,0,0.1967,0.1958,0.1974,0.1976,0.1973,0.1961,0.1958,0.1959,0.1978,0.1968,0.1969,0.1956,0.193,0.1926,0.192,0.1935,0.1892,0.1893,0.1894,0.1941,0.1947,0.1952,0,0,0,0,0,0,0.1934,0.1958,0.1974,0.1969,0.1972,0.1962,0.1964,0.197,0.1962,0.1981,0.1957,0.1953,0.1956,0.1937,0.1933,0.1932,0.1911,0.1911,0.1949,0.1954,0.1958,0.2059,0.191,0,0,0,0,0,0.1937,0.1949,0.1959,0.1957,0.1968,0.1974,0.1974,0.1983,0.1979,0.1978,0.1964,0.1959,0.1952,0.1948,0.1933,0.1928,0.1966,0.1936,0.194,0.1944,0.2022,0.208,0.2099,0.1899,0.1899,0.1899,0,0,0.1925,0.1941,0.1947,0.1954,0.1965,0.1972,0.1974,0.1988,0.1998,0.1976,0.1982,0.1973,0.1955,0.1953,0.1953,0.1942,0.2009,0.1946,0.195,0.2027,0.2084,0.2104,0.2122,0.19,0.19,0.19,0,0,0.1917,0.1926,0.1946,0.1955,0.1987,0.1982,0.1994,0.2,0.2009,0.2021,0.201,0.2038,0.1999,0.2009,0.2007,0.2033,0.2032,0.1996,0.2101,0.2153,0.2172,0.2189,0.222,0.2239,0.1997,0.1997,0.1997,0,0.1909,0.1932,0.1943,0.1968,0.1985,0.1992,0.2015,0.2013,0.2014,0.2043,0.2036,0.206,0.2049,0.2077,0.2102,0.2052,0.207,0.2076,0.2164,0.2182,0.2199,0.2226,0.2248,0.2,0.1999,0.1999,0.1999,0,0.1925,0.1947,0.1957,0.1996,0.2002,0.2021,0.2036,0.2038,0.2064,0.2093,0.2144,0.2142,0.2174,0.2153,0.2152,0.2241,0.2209,0.2162,0.2159,0.2223,0.2246,0.2267,0.2004,0.2003,0.2002,0.2001,0,0,0.1909,0.1962,0.1969,0.2005,0.2031,0.2041,0.2054,0.2088,0.2137,0.2159,0.2239,0.2266,0.231,0.2316,0.2292,0.2364,0.2486,0.2336,0.2337,0.2385,0.2595,0.2371,0.2372,0.2442,0.2447,0.2451,0.2549,0,0.1929,0.1984,0.1998,0.2041,0.2077,0.2084,0.209,0.2129,0.2178,0.2244,0.2302,0.2369,0.2346,0.2387,0.2453,0.2492,0.2552,0.2465,0.2515,0.2518,0.2327,0.2393,0.2207,0.2262,0.2569,0.2573,0.2575,0,0.1963,0.1994,0.205,0.2097,0.2113,0.2131,0.2187,0.22,0.2286,0.2335,0.243,0.248,0.2604,0.257,0.2701,0.2641,0.2658,0.2678,0.2679,0.2493,0.2336,0.2255,0.2289,0.2611,0.2608,0.2605,0.2603,0,0.1991,0.2038,0.2087,0.2106,0.2144,0.2174,0.2189,0.2256,0.2304,0.2429,0.2506,0.262,0.2699,0.2769,0.2811,0.2782,0.2938,0.2873,0.268,0.2663,0.2534,0.2495,0.2987,0.2987,0.2987,0.2987,0.2987,0,0.2033,0.2088,0.2112,0.2149,0.2194,0.222,0.23,0.2318,0.2416,0.2514,0.2576,0.2653,0.2768,0.2844,0.287,0.2833,0.2969,0.2753,0.2693,0.2533,0.2495,0.2827,0.2807,0.299,0.299,0.2989,0.2988,0,0.2114,0.2123,0.2175,0.2206,0.2223,0.2266,0.2348,0.243,0.2478,0.2611,0.2667,0.2744,0.2803,0.2854,0.296,0.2873,0.2882,0.282,0.2608,0.2519,0.2565,0.2547,0.2658,0.2651,0.2646,0.2641,0.2637,0,0.219,0.2223,0.2219,0.226,0.2296,0.2361,0.2425,0.2463,0.2559,0.2643,0.2722,0.2789,0.2778,0.2774,0.2687,0.2643,0.2748,0.2418,0.2326,0.2612,0.2543,0.2533,0.2522,0.2179,0.2172,0.2166,0.2161,0,0.2352,0.2324,0.2364,0.237,0.2436,0.2467,0.2563,0.2604,0.2667,0.2714,0.2712,0.2686,0.262,0.2431,0.2334,0.2283,0.2408,0.2283,0.2699,0.2241,0.2154,0.2087,0.2095,0.2107,0.2113,0.2117,0.212,0.2122,0.25,0.2505,0.2504,0.2508,0.2561,0.2548,0.2523,0.2585,0.2588,0.2536,0.2596,0.2419,0.2342,0.2026,0.1932,0.1851,0.1998,0.1928,0.1952,0.1981,0.1858,0.176,0.1618,0.1621,0.1623,0.1625,0.1626,0,0.2636,0.2623,0.2657,0.2603,0.2595,0.2585,0.2602,0.2488,0.2383,0.236,0.2241,0.1923,0.1734,0.1685,0.1461,0.1378,0.1421,0.1332,0.1422,0.1473,0.152,0.1379,0.101,0.1008,0.1007,0.1005,0,0,0.2736,0.274,0.2672,0.2619,0.2577,0.2449,0.2378,0.2189,0.2095,0.1852,0.1717,0.1671,0.1663,0.1349,0.1257,0.1126,0.1311,0.1069,0.1565,0.1729,0.1774,0.1855,0.1691,0,0,0,0,0]},{"header":{"parameterUnit":"m.s-1","parameterCategory":2,"la1":30.2991,"la2":30.254,"lo1":-89.0895,"lo2":-89.0444,"dy":0.0017,"dx":0.0017,"nx":28,"ny":28,"refTime":"2023-10-15T21:00:00:Z","depth":"2","parameterNumber":3,"parameterNumberName":"V-component_of_CURRENTS"},"data":[0,0,0,0,0,0,0,0,0,0,0,0,0,0,0,0,0,0,0,0,0,0,0,0,0,0,0,0,0,0,0,0,0,0,0,0,0,0,0,0,0,0,0,0,0,0,0,0,0,0,0,0,0,0,0,0,0,0,0.0388,0.0388,0,0.0401,0.0401,0.04,0.0398,0.0398,0.0398,0.0398,0.0285,0.0282,0.0279,0,0,0,0,0,0,0,0,0,0,0,0,0,0.0302,0.0304,0.0388,0.0388,0.0389,0.0401,0.0401,0.04,0.0398,0.0398,0.0398,0.0398,0.0286,0.0282,0.0278,0,0,0,0,0,0,0,0,0,0,0,0,0,0.0327,0.0304,0.0388,0.0391,0.0391,0.0401,0.0401,0.04,0.0398,0.0398,0.0398,0.0398,0.0287,0.0282,0.0278,0.0249,0,0,0.0264,0.0262,0,0,0,0,0,0,0,0,0.0326,0.033,0.039,0.0391,0.0391,0.04,0.0329,0.0345,0.0398,0.0393,0.0398,0.0398,0.0313,0.0307,0.0307,0.0244,0.0239,0.0264,0.0261,0.0259,0.0258,0,0,0,0,0,0,0,0.0324,0.0329,0.039,0.039,0.0391,0.0371,0.0375,0.0332,0.0348,0.0393,0.0394,0.0399,0.0312,0.0311,0.0304,0.0237,0.0264,0.026,0.0257,0.0255,0.0138,0.0137,0,0,0,0,0,0,0.0331,0.0328,0.039,0.0391,0.0361,0.0373,0.0378,0.0395,0.0351,0.0347,0.0399,0.0399,0.0319,0.0309,0.03,0.0265,0.0259,0.0255,0.0252,0.0138,0.0138,0.0137,0,0,0,0,0,0,0.033,0.0337,0.0389,0.0361,0.0366,0.0376,0.0395,0.0395,0.0387,0.0358,0.035,0.039,0.0319,0.0306,0.0261,0.026,0.0253,0.0249,0.0139,0.0138,0.0138,0.0194,0,0,0,0,0,0,0.0327,0.0337,0.0343,0.0362,0.0368,0.0402,0.0395,0.0396,0.0393,0.0392,0.0347,0.0338,0.0318,0.0268,0.0256,0.0254,0.0245,0.0139,0.0138,0.0138,0.0193,0.0195,0.0198,0,0,0,0,0,0.0324,0.0341,0.0344,0.0351,0.0381,0.0403,0.0404,0.0407,0.0392,0.0397,0.036,0.0339,0.0255,0.0264,0.025,0.0247,0.0139,0.0139,0.0138,0.0191,0.0195,0.0198,0,0,0,0,0,0,0.03,0.0343,0.0346,0.0372,0.0388,0.0403,0.0402,0.0401,0.0377,0.0363,0.0329,0.0318,0.0282,0.0249,0.026,0.021,0.0195,0.0191,0.024,0.0243,0.0245,0.0269,0.0241,0,0,0,0,0,0.0301,0.0329,0.0355,0.0375,0.0378,0.0384,0.0388,0.0392,0.038,0.037,0.0343,0.0302,0.0269,0.0244,0.0213,0.0175,0.0168,0.0165,0.0167,0.017,0.0179,0.0192,0.0198,0.0134,0.0134,0.0134,0,0,0.0293,0.0323,0.0335,0.0372,0.0376,0.0392,0.0386,0.0392,0.0401,0.0356,0.0342,0.0308,0.0261,0.0235,0.0215,0.0205,0.0177,0.0169,0.0171,0.018,0.0192,0.0198,0.0204,0.0134,0.0134,0.0134,0,0,0.0303,0.0319,0.0344,0.036,0.038,0.0387,0.0388,0.0397,0.0394,0.0371,0.035,0.032,0.0257,0.0247,0.0225,0.0215,0.0194,0.0195,0.0223,0.0235,0.0242,0.0247,0.0225,0.0228,0.0193,0.0193,0.0193,0,0.0292,0.0337,0.0351,0.0377,0.0393,0.0385,0.0407,0.0402,0.0397,0.0397,0.0367,0.0315,0.0268,0.0261,0.0253,0.0224,0.0217,0.0219,0.0243,0.0248,0.0253,0.0229,0.0231,0.0196,0.0195,0.0195,0.0195,0,0.0325,0.0354,0.0365,0.0404,0.0416,0.0434,0.0438,0.0438,0.0416,0.0416,0.04,0.0352,0.0332,0.0302,0.0263,0.0276,0.0255,0.0252,0.0244,0.0263,0.0235,0.0237,0.0199,0.0198,0.0198,0.0197,0,0,0.0329,0.0382,0.0387,0.0414,0.0436,0.0457,0.0459,0.0479,0.0498,0.0461,0.0489,0.0414,0.0405,0.038,0.0348,0.0335,0.0337,0.0302,0.0302,0.0296,0.0345,0.027,0.0264,0.0348,0.0349,0.035,0.0306,0,0.0354,0.0416,0.0433,0.048,0.0508,0.0508,0.0528,0.0536,0.0527,0.0549,0.0501,0.051,0.0433,0.0438,0.0412,0.0377,0.0348,0.0348,0.0313,0.0312,0.0257,0.0266,0.0285,0.0242,0.0307,0.0308,0.0308,0,0.0385,0.0432,0.0485,0.0545,0.0556,0.0579,0.0622,0.0645,0.0657,0.0652,0.0646,0.0625,0.0609,0.0544,0.0486,0.0494,0.0415,0.0367,0.0364,0.0281,0.0241,0.0235,0.0243,0.0311,0.0311,0.031,0.031,0,0.0403,0.0467,0.0517,0.0536,0.0596,0.0618,0.065,0.0674,0.0718,0.0744,0.0782,0.0746,0.0761,0.0674,0.0545,0.0534,0.0467,0.045,0.0299,0.0292,0.0292,0.0283,0.0395,0.0395,0.0395,0.0395,0.0396,0,0.0433,0.0472,0.0533,0.0566,0.0642,0.0662,0.0736,0.0764,0.082,0.0902,0.0859,0.0903,0.0798,0.0739,0.0598,0.0451,0.0512,0.0305,0.0284,0.0306,0.0299,0.035,0.0346,0.0394,0.0394,0.0394,0.0395,0,0.0438,0.0475,0.0551,0.0629,0.0655,0.0715,0.0811,0.0876,0.0921,0.1034,0.1061,0.1045,0.0969,0.0821,0.0681,0.0537,0.0393,0.0312,0.0319,0.0298,0.0193,0.0191,0.017,0.0167,0.0164,0.0162,0.0161,0,0.0451,0.0488,0.06,0.0664,0.0702,0.0786,0.0858,0.0923,0.1009,0.1115,0.1187,0.1145,0.1094,0.0839,0.0599,0.0351,0.0335,0.0202,0.0172,0.0192,0.0174,0.0176,0.0178,0.0189,0.0188,0.0187,0.0186,0,0.0487,0.0523,0.0591,0.0712,0.0803,0.091,0.1019,0.1098,0.1204,0.1284,0.1349,0.1307,0.1074,0.0815,0.0481,0.0319,0.0246,0.0168,0.023,0.0229,0.0204,0.0187,0.019,0.0176,0.0177,0.0178,0.0178,0.0179,0.0522,0.0563,0.0651,0.0769,0.0883,0.1019,0.1099,0.1208,0.1327,0.142,0.1402,0.131,0.1071,0.0592,0.0365,0.014,0.0138,0.0055,0.0063,0.007,0.0067,0.0037,-0.0024,-0.0024,-0.0024,-0.0024,-0.0025,0,0.0553,0.0589,0.0703,0.0844,0.0974,0.1026,0.1198,0.125,0.1362,0.1404,0.1388,0.1114,0.0845,0.0591,0.024,0.002,0.0043,-0.003,0.0056,0.0065,0.0074,0.0074,-0.0017,-0.0017,-0.0017,-0.0017,0,0,0.0573,0.0643,0.0694,0.089,0.0993,0.1122,0.1212,0.1276,0.1309,0.1289,0.1225,0.1103,0.084,0.0585,0.0329,0.0159,0.016,0.0125,0.0134,0.0274,0.0285,0.0131,0.0141,0,0,0,0,0]}],[{"header":{"parameterUnit":"m.s-1","parameterCategory":2,"la1":30.2991,"la2":30.254,"lo1":-89.0895,"lo2":-89.0444,"dy":0.0017,"dx":0.0017,"nx":28,"ny":28,"refTime":"2023-10-15T21:00:00:Z","depth":"4","parameterNumber":2,"parameterNumberName":"U-component_of_CURRENTS"},"data":[0,0,0,0,0,0,0,0,0,0,0,0,0,0,0,0,0,0,0,0,0,0,0,0,0,0,0,0,0,0,0,0,0,0,0,0,0,0,0,0,0,0,0,0,0,0,0,0,0,0,0,0,0,0,0,0,0,0,0.0611,0.0611,0,0.0636,0.0637,0.0637,0.0662,0.0662,0.0662,0.0662,0.0761,0.0763,0.0766,0,0,0,0,0,0,0,0,0,0,0,0,0,0.0632,0.0631,0.0611,0.0611,0.0611,0.0636,0.0637,0.0638,0.0662,0.0662,0.0662,0.0662,0.076,0.0763,0.0766,0,0,0,0,0,0,0,0,0,0,0,0,0,0.064,0.0631,0.0611,0.0624,0.0625,0.0636,0.0637,0.0638,0.0662,0.0662,0.0662,0.0662,0.0759,0.0763,0.0766,0.079,0,0,0.0778,0.078,0,0,0,0,0,0,0,0,0.0639,0.0639,0.0622,0.0623,0.0624,0.0643,0.068,0.0691,0.0662,0.0651,0.0662,0.0662,0.0726,0.0733,0.0741,0.0795,0.0799,0.0779,0.0781,0.0783,0.0784,0,0,0,0,0,0,0,0.0639,0.0639,0.0625,0.0622,0.0623,0.0644,0.0645,0.0683,0.0692,0.0652,0.0653,0.0651,0.0728,0.0737,0.0744,0.0801,0.0779,0.0782,0.0785,0.0786,0.0936,0.0937,0,0,0,0,0,0,0.0626,0.0638,0.0624,0.0625,0.0628,0.0643,0.0645,0.064,0.069,0.0696,0.0651,0.0652,0.073,0.0739,0.0747,0.0833,0.0783,0.0787,0.0789,0.0934,0.0936,0.0938,0,0,0,0,0,0,0.0626,0.0624,0.0623,0.063,0.063,0.0642,0.0637,0.064,0.0665,0.0688,0.0696,0.0674,0.0731,0.0742,0.0791,0.0835,0.0788,0.0792,0.0932,0.0935,0.0937,0.097,0,0,0,0,0,0,0.0627,0.0624,0.0629,0.0629,0.0629,0.0637,0.0637,0.0641,0.0661,0.0663,0.071,0.0718,0.0731,0.0785,0.0795,0.084,0.0795,0.093,0.0933,0.0936,0.0967,0.0973,0.0979,0,0,0,0,0,0.0628,0.0627,0.0629,0.0628,0.0631,0.0637,0.0641,0.0651,0.0662,0.0675,0.0707,0.0717,0.0812,0.0789,0.0801,0.0847,0.0929,0.0932,0.0936,0.0964,0.0972,0.0979,0,0,0,0,0,0,0.0646,0.0628,0.0631,0.0628,0.0636,0.064,0.0654,0.0663,0.0698,0.0708,0.0733,0.0744,0.081,0.082,0.0795,0.0899,0.0875,0.0881,0.0893,0.09,0.0906,0.0897,0.0798,0,0,0,0,0,0.0649,0.0642,0.0636,0.064,0.0643,0.0655,0.0664,0.067,0.0692,0.0708,0.0743,0.0785,0.0832,0.0857,0.0898,0.0948,0.0958,0.0988,0.0993,0.0998,0.0999,0.1059,0.107,0.095,0.095,0.095,0,0,0.0654,0.0648,0.0644,0.0643,0.0654,0.0672,0.0662,0.0678,0.0708,0.0715,0.0782,0.0813,0.0852,0.0912,0.0943,0.0926,0.1035,0.1003,0.1007,0.1005,0.1064,0.1075,0.1086,0.0952,0.0952,0.0951,0,0,0.0662,0.0662,0.0659,0.0668,0.0677,0.0692,0.0701,0.0719,0.0743,0.0793,0.0818,0.0862,0.0934,0.0964,0.099,0.1052,0.1069,0.108,0.11,0.1158,0.1169,0.1178,0.1189,0.1199,0.1077,0.1077,0.1077,0,0.0672,0.0667,0.0664,0.0672,0.0687,0.0706,0.0725,0.0756,0.0794,0.0824,0.0821,0.0942,0.0957,0.1043,0.1051,0.1066,0.1091,0.1068,0.1166,0.1175,0.1184,0.1193,0.1204,0.1079,0.1079,0.1079,0.1079,0,0.067,0.0682,0.0687,0.0707,0.073,0.0746,0.0782,0.0825,0.0861,0.0889,0.098,0.1008,0.1084,0.1093,0.1084,0.1169,0.1162,0.117,0.1144,0.1198,0.1204,0.1215,0.1082,0.1082,0.1081,0.1081,0,0,0.0647,0.0677,0.0682,0.0699,0.0747,0.0761,0.0834,0.0892,0.0949,0.0999,0.1074,0.1132,0.1161,0.119,0.1209,0.1227,0.1282,0.1219,0.1221,0.1223,0.1393,0.1237,0.1232,0.1321,0.1324,0.1326,0.1365,0,0.065,0.0664,0.0692,0.0739,0.0752,0.0809,0.088,0.0942,0.1004,0.1085,0.1132,0.1217,0.1203,0.1247,0.1275,0.1289,0.1315,0.1269,0.1346,0.1347,0.1197,0.1241,0.1333,0.1373,0.1375,0.1377,0.1378,0,0.0631,0.0647,0.068,0.0751,0.0766,0.0817,0.0929,0.0996,0.1114,0.1164,0.1262,0.1312,0.1382,0.1352,0.1427,0.1408,0.1407,0.1395,0.1397,0.1247,0.1211,0.1314,0.1397,0.1395,0.1394,0.1393,0.1392,0,0.0588,0.064,0.0669,0.0687,0.0776,0.0828,0.0902,0.1021,0.1093,0.1235,0.1294,0.1406,0.1469,0.1505,0.149,0.1483,0.1533,0.153,0.1391,0.1379,0.1493,0.1483,0.1584,0.1584,0.1584,0.1584,0.1584,0,0.0557,0.0577,0.0655,0.0665,0.0733,0.0814,0.092,0.1007,0.1148,0.1232,0.1348,0.1418,0.1512,0.1551,0.1532,0.148,0.159,0.1394,0.1386,0.1503,0.1494,0.1498,0.1488,0.1586,0.1585,0.1585,0.1585,0,0.0486,0.0534,0.0569,0.0667,0.0708,0.0762,0.092,0.0988,0.1139,0.1255,0.1309,0.1452,0.1497,0.1539,0.1578,0.1517,0.1486,0.1442,0.1538,0.1536,0.1283,0.1274,0.1303,0.1298,0.1294,0.129,0.1287,0,0.0429,0.0447,0.0554,0.0583,0.063,0.0732,0.0801,0.0967,0.1041,0.1249,0.128,0.1394,0.1461,0.1415,0.1446,0.1416,0.1387,0.1372,0.1338,0.1267,0.1259,0.1256,0.1253,0.1281,0.1279,0.1278,0.1277,0,0.0343,0.0406,0.0453,0.0535,0.0599,0.0661,0.0774,0.0826,0.1019,0.114,0.1248,0.129,0.1323,0.134,0.1323,0.1294,0.1383,0.1327,0.1336,0.1304,0.124,0.1235,0.1237,0.1262,0.1265,0.1266,0.1267,0,0.0288,0.0325,0.043,0.0499,0.0557,0.0598,0.0661,0.0765,0.0875,0.1098,0.1115,0.1225,0.1329,0.1273,0.1249,0.1211,0.1183,0.1143,0.1161,0.1177,0.1105,0.1005,0.095,0,0,0,0,0,0.0231,0.0314,0.0383,0.0468,0.0511,0.0571,0.0652,0.072,0.0884,0.0929,0.1041,0.1072,0.1088,0.1126,0.1054,0.1125,0.115,0.103,0.1105,0.1181,0.1198,0.1118,0,0,0,0,0,0,0.0214,0.0296,0.0388,0.0439,0.0481,0.0544,0.0596,0.0688,0.0731,0.0885,0.0897,0.0997,0.1011,0.1134,0.1043,0.1042,0.1058,0.108,0.1076,0.1171,0.1187,0.12,0.1124,0,0,0,0,0]},{"header":{"parameterUnit":"m.s-1","parameterCategory":2,"la1":30.2991,"la2":30.254,"lo1":-89.0895,"lo2":-89.0444,"dy":0.0017,"dx":0.0017,"nx":28,"ny":28,"refTime":"2023-10-15T21:00:00:Z","depth":"4","parameterNumber":3,"parameterNumberName":"V-component_of_CURRENTS"},"data":[0,0,0,0,0,0,0,0,0,0,0,0,0,0,0,0,0,0,0,0,0,0,0,0,0,0,0,0,0,0,0,0,0,0,0,0,0,0,0,0,0,0,0,0,0,0,0,0,0,0,0,0,0,0,0,0,0,0,0.0499,0.0499,0,0.0523,0.0524,0.0524,0.0534,0.0533,0.0533,0.0533,0.0501,0.05,0.05,0,0,0,0,0,0,0,0,0,0,0,0,0,0.043,0.0432,0.0499,0.0499,0.0499,0.0523,0.0524,0.0524,0.0534,0.0533,0.0533,0.0533,0.0501,0.0501,0.05,0,0,0,0,0,0,0,0,0,0,0,0,0,0.0459,0.0432,0.0499,0.0506,0.0507,0.0523,0.0524,0.0524,0.0534,0.0533,0.0533,0.0533,0.0502,0.0501,0.05,0.0497,0,0,0.0496,0.0496,0,0,0,0,0,0,0,0,0.0457,0.0461,0.0505,0.0506,0.0507,0.0524,0.0488,0.0512,0.0534,0.0524,0.0533,0.0533,0.0503,0.0502,0.0509,0.0496,0.0494,0.0496,0.0495,0.0495,0.0495,0,0,0,0,0,0,0,0.0455,0.046,0.0509,0.0505,0.0506,0.0498,0.0502,0.0492,0.0514,0.0525,0.0526,0.0527,0.0503,0.051,0.0508,0.0494,0.0496,0.0495,0.0495,0.0494,0.044,0.0439,0,0,0,0,0,0,0.0453,0.0459,0.0509,0.051,0.048,0.0499,0.0504,0.052,0.0516,0.0515,0.0527,0.0528,0.0512,0.051,0.0507,0.0493,0.0495,0.0494,0.0493,0.0441,0.044,0.0439,0,0,0,0,0,0,0.0451,0.0457,0.0508,0.0483,0.0489,0.0501,0.0518,0.052,0.0529,0.0518,0.0516,0.0534,0.0512,0.0509,0.0504,0.0492,0.0494,0.0493,0.0442,0.044,0.0439,0.0472,0,0,0,0,0,0,0.0449,0.0457,0.0467,0.0484,0.049,0.0513,0.0518,0.0521,0.053,0.053,0.0523,0.052,0.0512,0.0506,0.0503,0.0491,0.0492,0.0443,0.0441,0.044,0.0472,0.0472,0.0473,0,0,0,0,0,0.0447,0.046,0.0468,0.0473,0.0504,0.0513,0.0516,0.0523,0.053,0.0532,0.0533,0.052,0.0493,0.0505,0.0502,0.0489,0.0443,0.0441,0.044,0.0472,0.0472,0.0473,0,0,0,0,0,0,0.0426,0.0463,0.0471,0.0493,0.05,0.0514,0.0522,0.0526,0.0531,0.0535,0.0525,0.0522,0.0508,0.0493,0.0507,0.0465,0.046,0.0457,0.0485,0.0485,0.0486,0.0458,0.0491,0,0,0,0,0,0.0429,0.0457,0.0474,0.049,0.0498,0.0512,0.0517,0.0523,0.0529,0.0532,0.0527,0.0514,0.0498,0.049,0.0475,0.0462,0.0417,0.0444,0.0445,0.0445,0.0418,0.0348,0.0339,0.0433,0.0433,0.0433,0,0,0.0424,0.0449,0.0462,0.0488,0.0502,0.0507,0.0515,0.0528,0.0525,0.0526,0.0526,0.052,0.0495,0.0481,0.0471,0.0468,0.0398,0.0443,0.0444,0.0415,0.0345,0.0336,0.0327,0.0432,0.0432,0.0432,0,0,0.0422,0.0453,0.047,0.0481,0.0502,0.0509,0.0512,0.0528,0.053,0.0533,0.0525,0.0505,0.0499,0.0467,0.0452,0.0438,0.0404,0.044,0.0419,0.0353,0.0344,0.0336,0.0286,0.0273,0.0439,0.0439,0.0439,0,0.0412,0.044,0.0471,0.0484,0.0489,0.0509,0.0509,0.0516,0.0524,0.0512,0.0533,0.049,0.0481,0.0431,0.0433,0.0436,0.0403,0.0429,0.0353,0.0344,0.0335,0.0285,0.027,0.044,0.044,0.044,0.044,0,0.0417,0.0438,0.0449,0.0477,0.0482,0.0491,0.05,0.0503,0.0513,0.0506,0.0475,0.0465,0.0431,0.0429,0.0435,0.0365,0.0365,0.0367,0.0356,0.0328,0.0277,0.0261,0.0442,0.0441,0.0441,0.0441,0,0,0.0397,0.0444,0.0447,0.0459,0.048,0.0486,0.0481,0.0469,0.0459,0.0457,0.0422,0.04,0.0392,0.0371,0.0366,0.0314,0.0245,0.0322,0.0318,0.0277,0.011,0.0149,0.0135,0.0244,0.0241,0.0239,0.0108,0,0.0389,0.0416,0.0432,0.0442,0.0455,0.0464,0.0458,0.0449,0.0443,0.0419,0.0383,0.0362,0.0371,0.0369,0.0311,0.0262,0.0201,0.028,0.0137,0.0132,0.0174,0.0116,0.0229,0.0096,0.0092,0.0089,0.0087,0,0.0386,0.0407,0.0423,0.0438,0.0442,0.0446,0.0436,0.0434,0.0398,0.0392,0.0347,0.0329,0.0254,0.0278,0.014,0.0197,0.0146,0.0105,0.0099,0.0103,0.0139,0.0122,0.0058,0.006,0.0062,0.0064,0.0066,0,0.0376,0.0395,0.0412,0.042,0.0441,0.044,0.0445,0.0425,0.0428,0.0376,0.0367,0.0271,0.0245,0.0144,0.0079,0.0105,-0.0072,-0.005,-0.0077,-0.0074,-0.0081,-0.0071,-0.0174,-0.0174,-0.0173,-0.0173,-0.0173,0,0.0374,0.0386,0.0415,0.0432,0.0444,0.0449,0.0459,0.0445,0.0428,0.0417,0.0362,0.0326,0.0214,0.0118,0.0041,-0.0067,-0.0109,-0.0111,-0.0119,-0.006,-0.0046,-0.0091,-0.0079,-0.0178,-0.0177,-0.0176,-0.0175,0,0.0381,0.0401,0.0423,0.0441,0.0454,0.0469,0.0502,0.0498,0.0484,0.0464,0.0452,0.0358,0.0233,0.0114,-0.005,-0.0094,-0.0213,-0.024,-0.0172,-0.0169,-0.0163,-0.0149,-0.0304,-0.0304,-0.0304,-0.0304,-0.0304,0,0.0394,0.0411,0.0443,0.0457,0.0475,0.0508,0.0526,0.0535,0.0531,0.0483,0.0459,0.0349,0.0276,0.0062,-0.0061,-0.0237,-0.0238,-0.0297,-0.0239,-0.0192,-0.0184,-0.0169,-0.0155,-0.0304,-0.0305,-0.0305,-0.0305,0,0.0407,0.0422,0.0439,0.048,0.0506,0.0532,0.0555,0.0562,0.0556,0.0547,0.047,0.0368,0.0226,0.0068,-0.0062,-0.0183,-0.0263,-0.0298,-0.0298,-0.0244,-0.0194,-0.0183,-0.0169,-0.0305,-0.0305,-0.0305,-0.0305,0,0.0409,0.0425,0.0452,0.0491,0.0521,0.0532,0.055,0.0544,0.0556,0.0512,0.0483,0.0342,0.0265,0.0094,-0.0036,-0.0144,-0.0159,-0.0171,-0.0178,-0.0179,-0.0087,-0.0002,-0.009,0,0,0,0,0,0.0404,0.043,0.0456,0.0484,0.0511,0.0538,0.0551,0.056,0.0567,0.0523,0.0513,0.0387,0.021,0.0119,0.0015,-0.0047,-0.0191,-0.017,-0.0212,-0.0306,-0.0305,-0.0213,0,0,0,0,0,0,0.0392,0.0428,0.0454,0.0481,0.0502,0.0529,0.0544,0.0538,0.0519,0.051,0.041,0.0389,0.0201,0.0276,0.0023,-0.0013,-0.0046,-0.0251,-0.0253,-0.0306,-0.0306,-0.0305,-0.0211,0,0,0,0,0]}]]